• în România
  • Lista ţărilor
  • Pe 7 zile
  • Temperatura apei
  • Hartă satelitară
  • Meteo pe hartă
  • Widget-uri
  • user-avatar
    Intrare

    Meteo pe oră la Debrecen

    Astăzi, 21 Octombrie, Duminică

    Timp Temperatura Precipitaţii Vânt Presiune Umiditate
    00:00 +13°C° 0 mm 3 m/s 754 mmHg 70%
    01:00 +12°C° 0 mm 4 m/s 754 mmHg 71%
    02:00 +12°C° 0.1 mm 4 m/s 753 mmHg 69%
    03:00 +10°C° 0.1 mm 5 m/s 753 mmHg 68%
    04:00 +10°C° 0.1 mm 6 m/s 753 mmHg 67%
    05:00 +10°C° 0.1 mm 6 m/s 753 mmHg 67%
    06:00 +9°C° 0.1 mm 6 m/s 753 mmHg 67%
    07:00 +9°C° 0 mm 6 m/s 753 mmHg 66%
    08:00 +10°C° 0 mm 6 m/s 753 mmHg 65%
    09:00 +12°C° 0 mm 5 m/s 754 mmHg 65%
    10:00 +13°C° 0 mm 5 m/s 754 mmHg 64%
    11:00 +14°C° 0 mm 4 m/s 754 mmHg 63%
    12:00 +14°C° 0 mm 4 m/s 754 mmHg 62%
    13:00 +16°C° 0 mm 3 m/s 754 mmHg 61%
    14:00 +16°C° 0 mm 3 m/s 754 mmHg 63%
    15:00 +16°C° 0 mm 2 m/s 754 mmHg 65%
    16:00 +16°C° 0 mm 2 m/s 755 mmHg 67%
    17:00 +15°C° 0 mm 2 m/s 755 mmHg 69%
    18:00 +14°C° 0 mm 3 m/s 755 mmHg 70%
    19:00 +13°C° 0 mm 3 m/s 756 mmHg 71%
    20:00 +13°C° 0 mm 3 m/s 756 mmHg 71%
    21:00 +12°C° 0 mm 3 m/s 756 mmHg 71%
    22:00 +12°C° 0 mm 3 m/s 756 mmHg 71%
    23:00 +11°C° 0 mm 3 m/s 756 mmHg 72%

    Mâine, 22 Octombrie, Luni

    Timp Temperatura Precipitaţii Vânt Presiune Umiditate
    00:00 +11°C° 0 mm 3 m/s 757 mmHg 73%
    01:00 +10°C° 0 mm 3 m/s 757 mmHg 74%
    02:00 +10°C° 0 mm 3 m/s 756 mmHg 75%
    03:00 +9°C° 0 mm 3 m/s 756 mmHg 76%
    04:00 +9°C° 0 mm 3 m/s 756 mmHg 76%
    05:00 +9°C° 0 mm 3 m/s 756 mmHg 75%
    06:00 +9°C° 0 mm 3 m/s 757 mmHg 74%
    07:00 +9°C° 0 mm 3 m/s 757 mmHg 73%
    08:00 +12°C° 0 mm 2 m/s 757 mmHg 68%
    09:00 +13°C° 0 mm 2 m/s 757 mmHg 62%
    10:00 +15°C° 0 mm 2 m/s 757 mmHg 56%
    11:00 +16°C° 0 mm 2 m/s 756 mmHg 54%
    12:00 +18°C° 0 mm 1 m/s 756 mmHg 51%
    13:00 +19°C° 0 mm 1 m/s 755 mmHg 49%
    14:00 +18°C° 0 mm 1 m/s 755 mmHg 50%
    15:00 +18°C° 0 mm 1 m/s 755 mmHg 52%
    16:00 +16°C° 0 mm 1 m/s 755 mmHg 53%
    17:00 +15°C° 0 mm 1 m/s 755 mmHg 55%
    18:00 +14°C° 0 mm 1 m/s 755 mmHg 57%
    19:00 +13°C° 0 mm 1 m/s 755 mmHg 59%
    20:00 +13°C° 0 mm 1 m/s 755 mmHg 59%
    21:00 +12°C° 0 mm 1 m/s 756 mmHg 60%
    22:00 +12°C° 0 mm 1 m/s 756 mmHg 60%
    23:00 +12°C° 0 mm 1 m/s 756 mmHg 61%

    Poimâine, 23 Octombrie, Marţi

    Timp Temperatura Precipitaţii Vânt Presiune Umiditate
    00:00 +11°C° 0 mm 1 m/s 755 mmHg 62%
    01:00 +11°C° 0 mm 1 m/s 755 mmHg 62%
    02:00 +11°C° 0 mm 1 m/s 755 mmHg 63%
    03:00 +10°C° 0 mm 1 m/s 755 mmHg 63%
    04:00 +10°C° 0 mm 1 m/s 754 mmHg 64%
    05:00 +10°C° 0 mm 1 m/s 755 mmHg 63%
    06:00 +11°C° 0 mm 1 m/s 755 mmHg 62%
    07:00 +11°C° 0 mm 1 m/s 755 mmHg 61%
    08:00 +12°C° 0 mm 1 m/s 755 mmHg 58%
    09:00 +13°C° 0 mm 1 m/s 755 mmHg 56%
    10:00 +14°C° 0 mm 2 m/s 754 mmHg 53%
    11:00 +15°C° 0 mm 2 m/s 754 mmHg 51%
    12:00 +15°C° 0 mm 2 m/s 753 mmHg 49%
    13:00 +16°C° 0 mm 3 m/s 753 mmHg 47%
    14:00 +16°C° 0 mm 3 m/s 752 mmHg 47%
    15:00 +14°C° 0 mm 4 m/s 752 mmHg 46%
    16:00 +14°C° 0 mm 4 m/s 751 mmHg 45%
    17:00 +13°C° 0 mm 5 m/s 751 mmHg 46%
    18:00 +11°C° 0 mm 6 m/s 750 mmHg 47%
    19:00 +10°C° 0 mm 6 m/s 750 mmHg 48%
    20:00 +10°C° 0.1 mm 7 m/s 750 mmHg 51%
    21:00 +10°C° 0.1 mm 7 m/s 749 mmHg 55%
    22:00 +9°C° 0.1 mm 7 m/s 749 mmHg 58%
    23:00 +9°C° 0.2 mm 8 m/s 748 mmHg 61%

    24 Octombrie, Miercuri

    Timp Temperatura Precipitaţii Vânt Presiune Umiditate
    00:00 +8°C° 0.2 mm 9 m/s 747 mmHg 63%
    01:00 +8°C° 0.2 mm 9 m/s 746 mmHg 66%
    02:00 +10°C° 0.4 mm 9 m/s 745 mmHg 66%
    03:00 +10°C° 0.4 mm 9 m/s 744 mmHg 66%
    04:00 +10°C° 0.4 mm 9 m/s 743 mmHg 66%
    05:00 +11°C° 0.1 mm 10 m/s 743 mmHg 66%
    06:00 +11°C° 0.1 mm 10 m/s 742 mmHg 65%
    07:00 +11°C° 0.1 mm 10 m/s 741 mmHg 65%
    08:00 +12°C° 0.5 mm 10 m/s 742 mmHg 58%
    09:00 +12°C° 0.5 mm 10 m/s 742 mmHg 52%
    10:00 +12°C° 0.5 mm 10 m/s 742 mmHg 45%
    11:00 +11°C° 0 mm 10 m/s 742 mmHg 41%
    12:00 +11°C° 0 mm 10 m/s 743 mmHg 36%
    13:00 +10°C° 0 mm 9 m/s 744 mmHg 32%
    14:00 +10°C° 0 mm 8 m/s 744 mmHg 33%
    15:00 +9°C° 0 mm 6 m/s 744 mmHg 34%
    16:00 +8°C° 0 mm 5 m/s 745 mmHg 34%
    17:00 +8°C° 0 mm 4 m/s 745 mmHg 37%
    18:00 +7°C° 0 mm 4 m/s 746 mmHg 40%
    19:00 +6°C° 0 mm 4 m/s 747 mmHg 43%
    20:00 +6°C° 0 mm 4 m/s 747 mmHg 45%
    21:00 +6°C° 0 mm 4 m/s 747 mmHg 47%
    22:00 +5°C° 0 mm 5 m/s 748 mmHg 49%
    23:00 +5°C° 0 mm 4 m/s 748 mmHg 51%

    25 Octombrie, Joi

    Timp Temperatura Precipitaţii Vânt Presiune Umiditate
    00:00 +4°C° 0 mm 4 m/s 748 mmHg 52%
    01:00 +4°C° 0 mm 4 m/s 748 mmHg 53%
    02:00 +4°C° 0 mm 4 m/s 749 mmHg 55%
    03:00 +3°C° 0 mm 4 m/s 749 mmHg 56%
    04:00 +3°C° 0 mm 3 m/s 749 mmHg 58%
    05:00 +3°C° 0 mm 3 m/s 750 mmHg 59%
    06:00 +3°C° 0 mm 3 m/s 750 mmHg 60%
    07:00 +3°C° 0 mm 3 m/s 750 mmHg 61%
    08:00 +4°C° 0 mm 3 m/s 750 mmHg 55%
    09:00 +6°C° 0 mm 4 m/s 750 mmHg 50%
    10:00 +7°C° 0 mm 4 m/s 750 mmHg 45%
    11:00 +8°C° 0 mm 5 m/s 750 mmHg 48%
    12:00 +8°C° 0 mm 6 m/s 749 mmHg 52%
    13:00 +9°C° 0 mm 7 m/s 749 mmHg 55%
    14:00 +9°C° 0.1 mm 6 m/s 749 mmHg 60%
    15:00 +10°C° 0.1 mm 6 m/s 748 mmHg 65%
    16:00 +10°C° 0.1 mm 6 m/s 748 mmHg 70%
    17:00 +10°C° 0 mm 5 m/s 748 mmHg 71%
    18:00 +10°C° 0 mm 5 m/s 748 mmHg 71%
    19:00 +10°C° 0 mm 5 m/s 748 mmHg 71%
    20:00 +10°C° 0 mm 5 m/s 748 mmHg 72%
    21:00 +11°C° 0 mm 4 m/s 749 mmHg 73%
    22:00 +10°C° 0 mm 4 m/s 749 mmHg 73%
    23:00 +10°C° 0 mm 3 m/s 749 mmHg 76%

    26 Octombrie, Vineri

    Timp Temperatura Precipitaţii Vânt Presiune Umiditate
    00:00 +9°C° 0 mm 3 m/s 749 mmHg 79%
    01:00 +9°C° 0 mm 3 m/s 749 mmHg 81%
    02:00 +8°C° 0 mm 3 m/s 749 mmHg 83%
    03:00 +8°C° 0 mm 3 m/s 749 mmHg 85%
    04:00 +7°C° 0 mm 3 m/s 749 mmHg 87%
    05:00 +7°C° 0 mm 3 m/s 750 mmHg 87%
    06:00 +7°C° 0 mm 3 m/s 750 mmHg 88%
    07:00 +7°C° 0 mm 3 m/s 750 mmHg 88%
    08:00 +9°C° 0 mm 3 m/s 750 mmHg 79%
    09:00 +11°C° 0 mm 3 m/s 750 mmHg 71%
    10:00 +12°C° 0 mm 4 m/s 751 mmHg 62%
    11:00 +13°C° 0 mm 4 m/s 750 mmHg 58%
    12:00 +15°C° 0 mm 4 m/s 750 mmHg 53%
    13:00 +16°C° 0 mm 5 m/s 750 mmHg 48%
    14:00 +15°C° 0 mm 4 m/s 749 mmHg 51%
    15:00 +15°C° 0 mm 4 m/s 749 mmHg 54%
    16:00 +14°C° 0 mm 3 m/s 749 mmHg 56%
    17:00 +14°C° 0 mm 4 m/s 749 mmHg 58%
    18:00 +14°C° 0 mm 4 m/s 749 mmHg 59%
    19:00 +13°C° 0 mm 4 m/s 749 mmHg 61%
    20:00 +14°C° 0 mm 5 m/s 749 mmHg 60%
    21:00 +14°C° 0 mm 5 m/s 749 mmHg 59%
    22:00 +14°C° 0 mm 6 m/s 748 mmHg 59%
    23:00 +15°C° 0 mm 6 m/s 748 mmHg 57%
    Arată mai mult